Voltar ao catálogo

USA 388

AtivoMilitarVLEO
NORAD 60171·PAYLOAD·🇺🇸 United States

Lançado Jun 29, 2024 de Vandenberg Space Force Base

Loading…

Próximas Passagens (próximas 24 horas)

TLE

ObsoletoSource: Mike McCants

Época: Aug 31, 2026, 23:07 UTC

1 60171U 24121P   26243.96334706 0.00000000  00000-0  00000-0 0    03
2 60171  70.0212 196.5311 0002000 266.4126  93.5873 14.96713870    05

Acompanhe USA 388 em tempo real com AllMySat

Download on the App Store